Regional Weather Roundup
Issued by NWS

Home | Current Version | Previous Version | Text Only | Print | Product List | Glossary Off
Versions: 1 2 3 4 5 6 7 8 9 10 11 12 13 14 15 16 17 18 19 20 21 22 23 24 25 26 27 28 29 30 31 32 33 34 35 36 37 38 39 40 41 42 43 44 45 46 47 48 49 50

000
ASUS43 KIND 251809
RWRIN

WEATHER ROUNDUP FOR INDIANA
NATIONAL WEATHER SERVICE INDIANAPOLIS IN
100 PM EST THU DEC 25 2014

NOTE: "FAIR" INDICATES FEW OR NO CLOUDS BELOW 12,000 FEET WITH NO
SIGNIFICANT WEATHER AND/OR OBSTRUCTIONS TO VISIBILITY.

* - STATION DOES NOT REPORT WEATHER SUCH AS PRECIPITATION OR FOG.

+ - STATION NOT QUALITY CONTROLLED BY THE NATIONAL WEATHER SERVICE.
    USE DATA WITH CAUTION...ESPECIALLY DEWPOINT AND RELATIVE
    HUMIDITY OBSERVATIONS.

INZ001>003-010>013-019-020-251900-
NORTHWEST INDIANA

CITY           SKY/WX    TMP DP  RH WIND       PRES   REMARKS
GARY /AIRPORT/ CLOUDY    39  27  60 SW12G23   29.98F
KNOX *+        CLOUDY    36  28  72 SW20      30.00S
LA PORTE +     CLOUDY    38  32  79 SW17      30.00R
6HR MIN TEMP:  36; 6HR MAX TEMP:  38;

MICHIGAN CITY+ CLOUDY    36  27  69 SW16G22   29.99S
MONTICELLO +   CLOUDY    37  32  82 SW15G21   30.03R
RENSSELAER +   CLOUDY    37  36  93 SW20      30.02S
VALPARAISO     CLOUDY    37  29  72 SW12G24   30.00S
6HR MIN TEMP:  34; 6HR MAX TEMP:  37;


$$

LMZ046-743>745-251900-
SOUTHERN LAKE MICHIGAN

STATION/POSITION TIME  TEMP WIND        PRES
                       AIR  DIR/SP/G
                 (UTC) (F)  (DEG/KT/KT) (MB)
MICHIGAN CITY    1800   36  200/ 16/ 19   N/A

$$

INZ004-005-014>016-021>024-251900-
NORTH CENTRAL INDIANA

CITY           SKY/WX    TMP DP  RH WIND       PRES   REMARKS
GOSHEN         CLOUDY    36  30  79 SW15      30.00R
6HR MIN TEMP:  34; 6HR MAX TEMP:  36;

LOGANSPORT +   CLOUDY    36  30  80 SW14      30.05R
PERU/GRISSOM   CLOUDY    37  36  98 SW17      30.03F
6HR MIN TEMP:  34; 6HR MAX TEMP:  37;

ROCHESTER +    CLOUDY    37  32  81 SW14G21   30.03R
SOUTH BEND     NOT AVBL
WARSAW +       CLOUDY    36  30  80 SW12G18   30.01S

$$

INZ006>009-017-018-025>027-251900-
NORTHEAST INDIANA

CITY           SKY/WX    TMP DP  RH WIND       PRES   REMARKS
ANGOLA *+      CLOUDY    36  30  80 W9        29.99R
AUBURN +       CLOUDY    36  30  80 SW9G20    30.01S
FORT WAYNE     CLOUDY    37  30  75 SW22G29   30.03S
6HR MIN TEMP:  35; 6HR MAX TEMP:  37; 6HR PCP: TRACE;

HUNTINGTON +   CLOUDY    36  31  82 SW14G24   30.03S
6HR MIN TEMP:  34; 6HR MAX TEMP:  36;


$$

INZ028-029-035-036-043>045-051>053-251900-
WEST CENTRAL INDIANA

CITY           SKY/WX    TMP DP  RH WIND       PRES   REMARKS
GREENCASTLE +  CLOUDY    37  28  70 S9G17     30.07S
LAFAYETTE      CLOUDY    37  30  75 SW12G20   30.04F
6HR MIN TEMP:  35; 6HR MAX TEMP:  37;

TERRE HAUTE    CLOUDY    40  31  70 SW16G22   30.08F
6HR MIN TEMP:  36; 6HR MAX TEMP:  40;


$$

INZ030>032-037>040-046>048-054>057-064-065-251900-
CENTRAL INDIANA

CITY           SKY/WX    TMP DP  RH WIND       PRES   REMARKS
CP ATTERBURY + CLOUDY    39  32  75 MISG      30.09F
COLUMBUS       CLOUDY    39  34  81 SW12      30.10F
FRANKFORT +    CLOUDY    38  33  82 S16       30.05F
INDIANAPOLIS   CLOUDY    37  31  78 SW15      30.06F
6HR MIN TEMP:  34; 6HR MAX TEMP:  37;

-EAGLE CREEK   CLOUDY    38  31  76 SW13G20   30.05F
6HR MIN TEMP:  35; 6HR MAX TEMP:  38;

KOKOMO *+      CLOUDY    37  30  75 SW17      30.04F
MARION +       CLOUDY    36  30  81 SW16G22   30.05F
MT COMFORT *+  PTSUNNY   37  27  65 SW14      30.07F
SHELBYVILLE    CLOUDY    39  31  72 SW16      30.08F
6HR MIN TEMP:  37; 6HR MAX TEMP:  39;

ZIONSVILLE +   CLOUDY    37  30  74 SW14      30.05F
6HR MIN TEMP:  35; 6HR MAX TEMP:  37;


$$

INZ033-034-041-042-049-050-058-059-251900-
EAST CENTRAL INDIANA

CITY           SKY/WX    TMP DP  RH WIND       PRES   REMARKS
MUNCIE         CLOUDY    37  30  75 SW15G22   30.05F
6HR MIN TEMP:  35; 6HR MAX TEMP:  37;


$$

INZ060-061-067>069-081>083-085>088-251900-
SOUTHWEST INDIANA

CITY           SKY/WX    TMP DP  RH WIND       PRES   REMARKS
EVANSVILLE     SUNNY     46  34  62 SW15      30.12F
6HR MIN TEMP:  40; 6HR MAX TEMP:  46;

HUNTINGBURG *+ PTSUNNY   43  32  65 SW13      30.13F
6HR MIN TEMP:  37; 6HR MAX TEMP:  43;

WASHINGTON +   PTSUNNY   42  31  64 S12       30.10F
6HR MIN TEMP:  37; 6HR MAX TEMP:  42;


$$

INZ062-063-066-070>080-084-089>092-251900-
SOUTH CENTRAL AND SOUTHEAST INDIANA

CITY           SKY/WX    TMP DP  RH WIND       PRES   REMARKS
BLOOMINGTON    CLOUDY    39  32  76 SW10      30.09F
6HR MIN TEMP:  36; 6HR MAX TEMP:  39;


$$



USA.gov is the U.S. government's official web portal to all federal, state and local government web resources and services.